YAMAL 402

Last updated on Fri Apr 25 2025 00:02:40 GMT+0000 (Coordinated Universal Time)

1 39022U 12070A 25113.89931645 .00000088 00000+0 00000+0 0 9997 2 39022 0.1855 90.8562 0003919 304.7593 195.2193 1.00271764 45197
UTC large
Height (km)
Speed (km/s)
/
Latitude / Longitude
Inclination (degrees)
Orbital Period (minutes)
Azimuth
Elevation
Range (km)
Doppler Factor

Next 0 passes for location: London (51.5072 / 0.1276)

Sorry there are no passes over London.